Location: Newark
(49.4569°N, 2.2158°E)
Time: 22:25:52
(UTC+00:00)

ISS - Visible Passes

Search period start: 05 December 2019 00:00
Search period end: 15 December 2019 00:00
Orbit: 412 x 421 km, 51.6° (Epoch: 05 December)

Date Brightness Start Highest point End Pass type
(mag) Time Alt. Az. Time Alt. Az. Time Alt. Az.
05 Dec -3.6 16:36:47 10° WNW 16:40:06 58° N 16:43:26 10° E visible
05 Dec -3.2 18:13:35 10° WNW 18:16:28 57° WSW 18:16:28 57° WSW visible
06 Dec -3.8 17:25:06 10° WNW 17:28:29 88° S 17:30:12 27° ESE visible
06 Dec -0.6 19:02:12 10° W 19:03:08 15° W 19:03:08 15° W visible
07 Dec -3.8 16:36:37 10° WNW 16:39:59 74° NNE 16:43:21 10° E visible
07 Dec -2.3 18:13:30 10° W 18:16:34 33° SSW 18:16:59 32° SSW visible
08 Dec -2.9 17:24:55 10° WNW 17:28:11 48° SSW 17:31:02 13° SE visible
08 Dec -0.4 19:03:43 10° SW 19:03:58 10° SW 19:03:58 10° SW visible
09 Dec -3.4 16:36:23 10° WNW 16:39:43 69° SSW 16:43:04 10° ESE visible
09 Dec -0.9 18:13:51 10° W 18:16:01 16° SW 18:18:10 10° S visible
10 Dec -1.4 17:24:55 10° W 17:27:41 24° SW 17:30:27 10° SSE visible
11 Dec -2.0 16:36:12 10° W 16:39:18 35° SSW 16:42:24 10° SE visible
12 Dec -0.3 17:25:58 10° WSW 17:26:58 11° SW 17:27:59 10° SSW visible
13 Dec -0.6 16:36:23 10° W 16:38:39 17° SW 16:40:55 10° S visible
